Probability
0 0 0 1 3 3 3 2 2 1 1 1 1 1 3 7 10 9 9 10 8 4 2 2 2 3 2 1 0 1 1 1 1 1 0 1 2 2 2 2 3 2 2
0 0 1 2 3 3 2 1 1 1 1 0 0 0 2 5 8 8 7 7 6 2 1 1 1 2 2 1 0 1 2 2 2 1 0 0 1 1 1 1 2 1 1
0 0 1 2 3 3 2 2 2 1 1 0 0 0 1 3 5 5 5 5 3 1 0 0 0 1 1 0 0 1 2 1 1 1 0 0 0 0 0 0 1 1 1
0 0 1 2 3 3 3 4 3 2 2 1 0 1 1 1 2 4 4 3 3 2 1 0 0 0 0 0 1 2 3 2 1 0 0 0 0 0 0 0 1 2 2
0 0 0 1 2 2 3 4 4 3 3 2 2 2 2 1 2 3 3 3 3 2 2 1 0 0 0 0 1 2 3 3 1 0 0 0 0 0 0 0 1 1 2
0 0 0 0 1 2 3 4 5 4 4 3 3 3 3 2 1 3 3 2 2 2 2 1 1 0 0 0 1 1 1 1 0 0 0 0 0 0 0 0 0 0 1
0 0 0 0 1 2 4 5 5 4 4 3 3 3 2 1 1 2 2 1 1 2 2 3 2 1 0 0 0 0 0 0 0 0 0 0 0 0 0 0 0 0 0
0 0 0 0 0 1 3 3 3 3 2 2 1 1 1 0 0 1 1 0 1 2 3 3 2 1 0 0 0 0 0 0 0 0 0 0 0 0 0 0 1 1 1
0 0 0 0 0 0 1 1 1 1 1 0 0 0 0 0 0 0 0 0 0 1 2 2 1 1 0 0 0 0 0 0 0 0 0 0 0 0 0 1 2 4 4
0 0 0 0 0 0 0 0 0 0 0 0 0 0 0 0 0 0 0 1 1 1 1 0 0 0 0 0 0 0 0 0 0 0 0 0 0 0 1 2 4 6 6
0 0 0 0 0 0 0 0 0 0 0 0 1 0 0 0 0 0 1 3 4 2 1 0 0 0 0 0 0 0 0 0 0 0 0 1 1 1 3 6 8 8 7
0 0 0 0 0 0 0 0 0 0 0 0 0 0 0 0 0 0 1 2 3 2 1 0 0 1 0 0 0 0 0 0 0 0 0 0 1 2 6 10 11 9 7
0 0 0 0 0 0 0 0 0 0 0 0 0 0 0 0 0 0 0 1 1 1 1 0 0 0 0 0 0 0 0 0 0 0 0 1 1 3 7 9 10 9 8
0 0 1 1 0 0 0 0 0 0 0 0 0 0 0 0 0 0 0 0 0 0 0 0 0 0 0 0 0 0 0 0 0 0 0 1 2 3 5 6 7 8 9
1 1 2 2 1 0 0 0 0 0 0 0 0 0 0 0 0 0 0 0 0 0 0 0 0 0 0 0 0 0 0 0 0 0 0 1 1 2 3 5 6 6 7
3 2 3 3 2 1 1 1 1 0 0 0 0 0 0 0 0 0 0 0 0 0 0 0 0 0 0 0 0 0 0 0 0 0 0 0 0 1 3 5 5 4 4
5 4 4 3 3 3 2 2 2 1 0 0 0 0 0 0 0 0 0 0 0 0 0 0 0 0 0 0 0 0 0 0 0 1 1 1 0 1 2 3 3 2 2
5 5 5 4 3 3 3 3 2 1 0 0 0 0 1 1 1 0 0 0 0 0 0 0 0 0 0 0 0 0 0 0 1 2 2 1 0 0 1 1 1 1 1
5 5 5 4 4 3 2 1 1 0 0 0 0 0 1 2 2 1 0 0 0 0 0 0 0 0 0 0 0 0 0 1 2 2 2 1 0 0 0 0 1 2 2
6 6 6 5 4 3 2 1 0 0 0 0 0 0 0 1 1 1 0 0 0 0 0 0 0 0 0 0 0 0 0 1 1 1 1 0 0 0 0 0 1 1 2
6 6 6 6 5 5 4 2 1 0 0 0 0 0 0 0 0 0 0 0 0 0 0 0 0 0 0 0 0 0 0 0 0 0 0 0 0 0 0 0 0 1 2
6 6 7 7 8 8 6 4 2 1 0 0 0 0 0 0 0 0 1 1 1 0 0 0 0 0 0 0 0 0 0 0 0 0 0 0 0 0 0 0 0 0 1
7 7 8 9 11 11 8 5 3 2 0 0 0 0 0 0 0 1 2 2 2 1 0 0 0 0 0 0 0 0 0 0 0 0 0 0 0 0 0 0 0 0 1
9 9 9 10 10 10 9 7 5 4 2 0 0 0 0 0 1 2 3 3 3 2 1 0 0 0 0 0 0 0 0 0 0 0 0 0 0 0 0 0 0 0 0
10 10 9 9 9 9 9 8 7 5 3 1 0 0 0 1 1 3 3 3 3 2 1 0 0 0 0 0 0 0 0 0 0 0 0 0 0 0 0 0 0 0 0
10 10 9 8 7 8 9 8 7 6 4 2 1 0 1 2 2 3 3 3 3 2 1 0 0 0 0 0 0 0 0 0 0 0 0 0 0 0 0 0 0 0 0
Wind_Speed
1 2 7 9 10 10 11 11 11 11 12 13 13 14 14 15 15 16 16 16 16 17 16 16 15 16 15 15 15 14 14 14 14 14 14 14 14 13 13 13 12 9 13
5 4 8 9 10 10 11 11 11 12 12 13 13 14 14 14 15 15 15 16 16 16 16 15 15 15 14 14 14 14 14 14 14 13 13 12 13 13 13 13 12 8 13
6 5 7 9 10 10 11 11 12 12 13 13 13 14 14 14 14 14 15 15 15 15 15 15 15 14 14 13 13 13 13 13 13 12 11 6 7 12 12 12 12 13 12
7 4 7 10 10 11 12 12 12 13 13 13 13 14 14 14 14 14 14 15 15 15 15 14 14 14 13 12 12 11 11 11 11 10 5 4 5 11 12 12 12 12 12
5 4 7 11 11 12 12 12 13 13 13 13 13 14 14 14 14 14 14 14 14 14 14 13 13 13 12 11 11 10 9 9 9 7 4 4 4 9 11 11 11 11 11
6 5 7 11 11 11 12 13 13 13 14 13 13 13 13 14 13 13 13 13 13 13 13 12 12 11 11 10 10 9 8 8 6 4 3 4 4 9 11 11 11 10 10
6 5 7 11 11 11 12 13 13 13 13 13 13 13 13 13 12 12 12 11 11 11 12 11 11 10 10 9 9 8 7 7 4 4 4 4 5 9 10 10 10 9 9
7 5 6 10 11 11 11 12 12 12 12 12 12 12 12 12 11 11 10 10 10 10 11 11 10 9 9 8 7 6 5 5 6 5 4 4 7 8 10 10 9 9 9
7 6 4 5 7 9 10 10 11 11 11 11 11 11 11 11 11 10 9 9 9 10 10 10 9 8 8 7 7 6 5 6 4 3 5 3 7 9 9 9 9 9 9
6 5 5 4 4 4 5 9 10 10 10 10 10 10 10 10 10 9 7 8 9 10 10 9 9 7 6 6 5 4 5 5 3 3 2 4 9 10 9 9 9 9 9
7 4 4 4 4 3 4 6 7 8 9 8 7 9 8 3 4 4 6 8 9 9 9 8 8 7 6 5 4 4 3 2 3 2 2 6 9 10 9 9 9 9 9
7 5 4 5 4 4 4 4 2 3 3 3 3 3 2 2 2 3 5 7 8 8 7 7 7 6 3 2 2 2 1 2 2 3 3 8 9 10 10 9 9 10 9
7 6 4 4 4 4 3 3 2 1 2 2 2 3 2 2 1 1 1 2 3 4 2 2 2 1 2 2 2 2 2 2 2 2 4 9 10 10 10 10 10 10 10
7 6 5 4 4 4 4 3 2 2 2 2 2 3 3 2 2 2 1 1 1 1 1 1 1 1 2 3 3 3 3 2 2 1 3 9 9 10 10 10 10 10 10
7 6 5 5 5 4 3 2 3 2 2 2 2 3 3 3 2 2 2 1 2 1 2 2 2 2 2 2 2 3 3 2 2 2 2 8 9 9 10 10 10 10 10
7 6 5 5 5 4 3 2 2 2 2 2 2 3 4 3 3 3 2 2 2 2 2 2 2 2 2 2 2 2 3 2 2 2 2 4 7 8 9 9 10 10 10
8 6 6 6 5 4 4 3 3 3 2 2 2 2 3 3 4 3 2 2 2 2 2 2 2 1 1 2 1 2 2 2 2 2 2 2 3 6 8 7 8 8 9
8 7 6 6 5 4 4 3 2 2 2 2 2 2 3 4 4 3 2 2 2 2 2 2 2 1 1 1 1 1 1 1 2 2 2 2 2 2 4 6 6 7 8
8 7 6 5 5 4 4 3 3 2 2 2 1 2 2 3 4 3 3 2 2 2 1 2 2 2 2 1 1 1 1 1 2 2 2 3 3 3 2 3 5 5 6
8 7 6 5 5 4 3 2 2 2 1 1 1 2 2 2 3 3 2 2 3 2 1 1 2 1 2 2 1 0 0 1 1 1 2 2 2 3 3 3 2 3 5
7 7 6 6 4 4 2 2 2 1 1 1 1 2 3 3 3 3 3 2 3 2 2 2 2 2 1 1 2 1 2 1 1 1 1 1 2 3 3 3 2 2 2
9 7 7 6 6 5 3 3 2 2 2 1 1 1 2 3 3 3 3 2 2 2 2 2 2 1 0 1 2 2 1 3 2 1 0 1 2 1 2 3 2 2 2
10 9 8 7 6 5 4 3 2 2 1 1 1 1 1 2 3 3 4 3 3 2 2 2 2 3 1 1 1 3 3 2 2 2 1 0 1 1 1 1 2 2 3
11 10 8 7 6 5 5 5 5 4 3 3 2 1 1 2 2 3 3 3 3 2 2 2 2 2 3 1 0 1 2 3 2 1 2 1 0 1 1 1 1 2 3
11 10 8 7 6 5 6 6 5 4 3 2 2 2 1 1 2 3 3 3 3 2 2 2 2 2 2 2 1 1 1 1 1 2 1 2 1 1 1 2 2 2 2
10 9 9 8 7 6 6 6 6 5 4 4 3 3 2 1 1 2 3 3 3 2 2 2 2 2 2 2 1 1 2 2 2 2 2 1 1 2 1 1 1 1 2
Wind_Direction
133 126 105 96 94 95 97 97 98 99 101 102 106 111 113 114 114 117 119 123 124 124 124 124 123 123 122 122 121 119 120 123 122 122 125 126 126 124 122 121 118 116 118
147 130 108 98 98 99 100 100 101 102 103 106 109 112 116 117 117 119 121 124 125 125 126 125 126 126 126 124 123 122 122 124 123 122 124 125 126 126 124 125 123 123 123
130 128 113 101 99 102 104 104 104 104 104 106 109 114 117 119 119 119 121 124 126 127 127 128 128 128 127 126 125 123 123 122 125 122 120 115 123 127 128 128 127 127 126
129 126 116 108 103 104 107 107 107 106 105 108 112 116 117 121 122 121 123 126 127 128 128 129 129 128 126 125 124 123 123 125 124 124 118 120 127 130 131 131 130 131 131
120 121 122 115 110 108 110 111 112 110 109 111 114 117 119 122 124 124 125 126 128 129 131 131 129 129 129 130 129 127 126 127 127 115 109 115 123 135 135 135 135 136 136
126 126 127 121 118 116 115 114 113 113 113 113 116 118 119 121 123 124 125 127 129 132 134 132 132 134 134 134 134 132 133 133 120 112 119 124 132 142 142 142 142 143 144
135 132 130 128 125 124 122 120 118 117 117 116 115 115 117 119 121 123 124 128 134 138 138 137 136 137 136 135 136 137 138 137 118 114 122 129 141 145 147 147 148 150 149
137 134 131 132 131 127 128 126 123 121 120 118 118 118 117 119 120 123 126 132 138 144 145 143 142 141 139 138 138 137 141 134 126 126 124 134 144 148 152 151 153 155 155
134 130 127 132 133 133 132 132 130 127 125 125 123 123 124 124 125 126 129 135 141 144 146 149 149 149 148 146 143 139 137 133 121 135 144 146 150 150 153 155 159 158 157
126 131 136 130 127 130 133 141 139 136 134 132 130 128 129 130 133 133 130 132 140 145 148 155 159 157 156 154 151 146 140 136 129 146 151 164 164 162 162 162 160 163 167
125 131 137 139 142 139 140 144 144 144 143 142 139 137 132 121 125 132 140 138 142 151 158 163 169 171 171 168 161 151 139 133 135 152 164 172 169 170 171 172 172 170 172
141 147 144 147 149 151 153 134 139 148 143 142 138 137 130 134 142 145 150 155 156 159 165 171 177 175 173 153 154 151 133 148 154 168 179 181 178 178 179 179 181 179 179
150 148 147 149 149 145 136 140 143 138 148 152 159 158 145 140 142 140 140 156 154 156 150 161 178 170 156 162 163 159 159 159 158 183 185 185 185 186 188 189 189 186 185
143 150 149 147 145 143 140 145 148 142 150 161 169 164 150 146 150 145 147 156 151 147 150 158 169 167 171 178 173 166 164 174 171 185 191 191 192 194 195 194 196 195 195
143 146 147 145 144 147 137 146 145 152 161 166 163 171 163 157 164 167 173 171 178 163 164 172 181 176 178 180 173 168 174 171 180 189 196 194 194 195 197 200 201 202 204
149 149 146 142 143 140 138 145 152 163 161 156 168 176 168 163 166 171 172 177 189 184 182 178 179 177 180 165 164 172 179 179 187 184 188 199 200 200 203 206 204 206 208
152 151 151 148 138 139 144 152 151 158 151 156 170 176 172 167 163 165 168 176 187 178 167 152 155 143 154 152 163 192 186 181 187 183 183 195 207 210 210 210 208 207 208
151 154 162 150 144 147 146 139 138 145 148 157 165 164 177 173 160 156 160 177 176 152 148 147 139 132 143 145 161 189 183 178 189 183 185 193 199 208 207 200 206 208 207
158 157 161 154 154 153 146 139 132 131 138 154 145 153 171 171 164 156 161 168 153 134 138 164 144 155 159 159 173 188 190 190 201 191 190 189 194 198 190 195 201 206 213
160 159 159 155 159 150 136 122 106 100 112 123 134 150 154 156 152 145 148 145 133 128 132 148 154 157 165 178 172 94 351 222 208 213 211 193 188 191 183 184 190 209 213
161 159 161 158 165 151 137 138 137 148 149 128 150 142 140 144 138 134 137 139 137 143 160 159 144 139 145 127 93 32 356 339 272 246 226 190 193 197 184 186 191 196 203
173 169 166 169 169 167 165 164 159 156 167 160 143 125 134 132 137 141 140 145 142 136 134 142 131 134 171 141 134 113 21 341 325 300 230 186 199 196 195 201 192 187 194
178 178 176 176 170 168 159 136 122 91 71 65 98 131 143 138 141 142 143 142 140 140 156 164 155 154 171 211 145 146 153 215 290 319 300 138 143 177 207 200 190 198 201
183 179 174 173 169 168 157 148 149 154 166 191 178 168 170 147 140 143 140 144 147 149 159 179 166 161 148 166 249 183 167 161 157 307 329 338 209 202 220 221 211 209 202
180 177 174 170 173 171 163 162 161 164 174 169 154 151 168 172 152 152 147 144 151 159 166 161 147 144 148 159 169 169 140 124 134 147 269 309 325 276 237 234 225 210 200
177 175 172 171 179 177 170 166 166 166 163 155 163 169 179 181 173 165 150 151 162 165 168 170 166 153 162 157 157 155 154 157 183 167 198 244 265 277 260 240 214 201 200